Satellite: FALCON
Catalog number: 30776
Epoch time:      09281.80143987
Element set:     674
Inclination:      035.4326 deg
RA of node:       130.0566 deg
Eccentricity:    0.0000951
Arg of perigee:   245.7933 deg
Mean anomaly:     114.2685 deg
Mean motion:   15.03323252 rev/day
Decay rate:       4.55e-06 rev/day^2
Epoch rev:           14220
Checksum:              277

Satellite: MAST
Catalog number: 31126
Epoch time:      09280.65627730
Element set:    0704
Inclination:      097.9763 deg
RA of node:       330.2374 deg
Eccentricity:    0.0093702
Arg of perigee:   291.1492 deg
Mean anomaly:     067.9729 deg
Mean motion:   14.53520116 rev/day
Decay rate:        3.3e-07 rev/day^2
Epoch rev:           13137
Checksum:              290

Satellite: CAPE1
Catalog number: 31130
Epoch time:      09281.70174450
Element set:     713
Inclination:      097.9782 deg
RA of node:       329.1653 deg
Eccentricity:    0.0102090
Arg of perigee:   294.2390 deg
Mean anomaly:     064.8171 deg
Mean motion:   14.52091410 rev/day
Decay rate:       -8.6e-07 rev/day^2
Epoch rev:           13116
Checksum:              271

Satellite: COMPASS
Catalog number: 32787
Epoch time:      09280.20827668
Element set:    0491
Inclination:      097.9312 deg
RA of node:       343.0175 deg
Eccentricity:    0.0016420
Arg of perigee:   032.2781 deg
Mean anomaly:     327.9427 deg
Mean motion:   14.81665848 rev/day
Decay rate:       3.19e-06 rev/day^2
Epoch rev:           07803
Checksum:              314

Satellite: AAUSAT2
Catalog number: 32788
Epoch time:      09280.63946002
Element set:    0483
Inclination:      097.9321 deg
RA of node:       343.5235 deg
Eccentricity:    0.0016287
Arg of perigee:   031.9920 deg
Mean anomaly:     328.2263 deg
Mean motion:   14.81792975 rev/day
Decay rate:       4.32e-06 rev/day^2
Epoch rev:           07810
Checksum:              311

Satellite: DO-64
Catalog number: 32789
Epoch time:      09280.72853768
Element set:    0495
Inclination:      097.9361 deg
RA of node:       343.8480 deg
Eccentricity:    0.0016267
Arg of perigee:   029.3089 deg
Mean anomaly:     330.9027 deg
Mean motion:   14.81808158 rev/day
Decay rate:       1.91e-06 rev/day^2
Epoch rev:           07811
Checksum:              346

Satellite: CO-66
Catalog number: 32791
Epoch time:      09281.75020518
Element set:     476
Inclination:      097.9327 deg
RA of node:       344.5763 deg
Eccentricity:    0.0016795
Arg of perigee:   025.2639 deg
Mean anomaly:     334.9387 deg
Mean motion:   14.81487907 rev/day
Decay rate:       3.77e-06 rev/day^2
Epoch rev:            7822
Checksum:              355

Satellite: RS-30
Catalog number: 32953
Epoch time:      09280.71417010
Element set:    0425
Inclination:      082.5051 deg
RA of node:       186.6489 deg
Eccentricity:    0.0018502
Arg of perigee:   297.4731 deg
Mean anomaly:     062.4460 deg
Mean motion:   12.43003073 rev/day
Decay rate:        1.0e-07 rev/day^2
Epoch rev:           06237
Checksum:              263

Satellite: TACSAT-3
Catalog number: 35001
Epoch time:      09279.49558526
Element set:    0123
Inclination:      040.4572 deg
RA of node:       294.8373 deg
Eccentricity:    0.0025205
Arg of perigee:   271.0566 deg
Mean anomaly:     088.7360 deg
Mean motion:   15.39272655 rev/day
Decay rate:      2.903e-05 rev/day^2
Epoch rev:           02150
Checksum:              296

Satellite: PHARMSAT
Catalog number: 35002
Epoch time:      09280.39909510
Element set:     110
Inclination:      040.4707 deg
RA of node:       288.6142 deg
Eccentricity:    0.0028074
Arg of perigee:   281.6651 deg
Mean anomaly:     078.1014 deg
Mean motion:   15.40022592 rev/day
Decay rate:      2.463e-05 rev/day^2
Epoch rev:            2164
Checksum:              257

Satellite: HAWKSAT1
Catalog number: 35003
Epoch time:      09280.41205313
Element set:    0119
Inclination:      040.4635 deg
RA of node:       287.7151 deg
Eccentricity:    0.0028403
Arg of perigee:   285.3324 deg
Mean anomaly:     074.4353 deg
Mean motion:   15.40840447 rev/day
Decay rate:      4.744e-05 rev/day^2
Epoch rev:           02166
Checksum:              263

Satellite: CP6
Catalog number: 35004
Epoch time:      09280.41004387
Element set:    0114
Inclination:      040.4637 deg
RA of node:       287.7061 deg
Eccentricity:    0.0027853
Arg of perigee:   285.3055 deg
Mean anomaly:     074.4680 deg
Mean motion:   15.40927094 rev/day
Decay rate:      5.338e-05 rev/day^2
Epoch rev:           02165
Checksum:              289

Satellite: AEROCUB3
Catalog number: 35005
Epoch time:      09280.94589624
Element set:    0122
Inclination:      040.4764 deg
RA of node:       284.8862 deg
Eccentricity:    0.0027744
Arg of perigee:   286.6250 deg
Mean anomaly:     073.1519 deg
Mean motion:   15.40712676 rev/day
Decay rate:      4.878e-05 rev/day^2
Epoch rev:           02173
Checksum:              316

Satellite: DRAGNSAT
Catalog number: 35690
Epoch time:      09281.71213203
Element set:      68
Inclination:      051.6419 deg
RA of node:       079.6538 deg
Eccentricity:    0.0003235
Arg of perigee:   343.3974 deg
Mean anomaly:     016.6919 deg
Mean motion:   15.83740608 rev/day
Decay rate:     3.0857e-04 rev/day^2
Epoch rev:            1111
Checksum:              294

